Gold Country Challenge - Toss 31 - 32 Miles

Station: Ione CA - T Race

Distance: 31.87 Miles    

Release: 20-Nov-2020 08:10

Weather Release: Mostly Clear/Cold    Arrival: Clear/Cold

Wind at Release: LT E 3-4     Wind at Arrival: Calm

Temp at Release: 42°    Temp at Arrival: °

Lofts: 90

Birds: 244

Clocked: 243

Single Release birds left 3 Mins. Race 3 between Sunday and Tuesday
Drops Pos Breeder Pigeon Name Color Sex Ent Arrival Speed To Win Elg PdChampAOC
1 Sierra Ranch - CA 0251-AU20-SR Golden Rain BC H 1 08:54:25.00 1262.841 00:00:00 Yes
2 F-R-E-L Syndicate - CA 7015-AU20-AA Francis 015 BB H 1 08:54:37.20 1257.087 00:00:12 Yes
3 Marengo Creek Farms - GA 3505-AU20-MCF SLWS H 1 08:54:40.00 1255.773 00:00:15 Yes
4 F-R-E-L Syndicate - CA 7016-AU20-AA Francis 016 BB H 2 08:54:40.80 1255.398 00:00:16 Yes
5 Bieche-Stevenson - CA 0297-AU20-BIE BB H 1 08:55:38.80 1228.813 00:01:14 Yes
6 Perfection Loft - KS 13049-AU20-AA 371-48196 BBWF H 1 08:55:50.70 1223.497 00:01:26 Yes
7 Kereru Whare - CA 1172-AU20-FSC BB H 1 08:56:08.70 1215.542 00:01:44 Yes
8 H & H Flying Circus - CA 0304-AU20-ML BC H 1 08:56:10.60 1214.709 00:01:46 Yes
9 Skychargers 2 - CA 0102-AU20-CORO BB H 1 08:56:11.80 1214.183 00:01:47 Yes
10 White Arrow Loft - IL 0559-AU20-LCC MYPD H 1 08:56:12.50 1213.876 00:01:48 Yes
11 Prout's Loft - CA 0478-AU20-PROU Shortface BB H 1 08:56:25.20 1208.341 00:02:00 Yes
12 Dads Loft - CA 20305-AU20-LAKE BC H 1 08:56:25.60 1208.168 00:02:01 Yes
13 B S Lofts - CA 13322-AU20-JEDD 232 & 26-2 BC H 1 08:56:25.70 1208.124 00:02:01 Yes
14 Perfection Loft - KS 13037-AU20-AA 640-2804 BB H 2 08:56:25.90 1208.038 00:02:01 Yes
15 Big Game Loft - CA 45322-AU20-ARPU MLY H 1 08:56:28.00 1207.128 00:02:03 Yes
16 Callahan Loft - MO 0957-AU20-AA DC H 1 08:56:28.40 1206.955 00:02:03 Yes
17 Kereru Whare - CA 1176-AU20-FSC BB H 2 08:56:32.50 1205.182 00:02:08 Yes
18 Kereru Whare - CA 1121-AU20-FSC BB H 3 08:56:33.00 1204.967 00:02:08 Yes
19 John Gutierrez - NM 0243-AU20-GUTZ Rudy/Gld BB H 1 08:56:35.80 1203.760 00:02:11 Yes
20 Bieu Tran - CA 0061-AU20-HJ BC H 1 08:56:36.70 1203.373 00:02:12 Yes
21 --- C H O U --- H A N G --- - CA 2001-IF20-HANG Ia's Pick BB H 1 08:56:37.20 1203.157 00:02:12 Yes
22 Sierra Ranch - CA 0239-AU20-SR Goldie SMK H 2 08:56:37.90 1202.856 00:02:13 Yes
23 Gottruhm - CA 0371-AU20-POP BB H 1 08:56:39.30 1202.255 00:02:14 Yes
24 Kfly Racing Pigeon Loft - ID 2000-AU20-KFLY Peponita X Little Tenina BB H 1 08:56:40.00 1201.954 00:02:15 Yes
25 Loft By Augustine - KS 0121-AU20-SWK Monopolizer BBWF H 1 08:56:40.70 1201.654 00:02:16 Yes
26 Euro Dead - CA 29156-AU20-JEDD DV-849 J-30413 BB H 1 08:56:40.80 1201.611 00:02:16 Yes
27 Dud/Tx Mx/Ramp - TX 9468-AU20-AA BB H 1 08:56:41.30 1201.396 00:02:16 Lost
28 Wonderwings Lofts - CA 2046-AU20-MAN Hurricane BB H 1 08:56:41.80 1201.182 00:02:17 Yes
29 A.D.S Hilltop Family Loft - NJ 57092-AU20-ARPU NICK KLAUSE/MISS SUMMIT BCWF H 1 08:56:45.50 1199.598 00:02:20 Lost
30 A P C Loft - TX 20082-AU20-APC BB H 1 08:56:48.40 1198.359 00:02:23 Yes
31 F-R-E-L Syndicate - CA 16905-AU20-JEDD Reb 905 BB H 3 08:56:49.10 1198.061 00:02:24 Yes
32 PNWC - ID 1209-AU20-IDA Pair# J12 BB H 1 08:56:49.40 1197.933 00:02:24 Yes
33 Oddiebeng Loft - CA 9670-AU20-FOYS DC H 1 08:56:49.80 1197.762 00:02:25 Yes
34 Sparks Trio Syn - NV 0314-AU20-RENO BC H 1 08:56:51.50 1197.038 00:02:26 Yes
35 Valhalla Loft - CA 2027-AU20-WSJ BBSP H 1 08:56:52.20 1196.740 00:02:27 Yes
35 Pellizzari Loft - CA 1003-AU20-WSJ BC H 1 08:56:52.20 1196.740 00:02:27 Yes
37 A P C Loft - TX 20119-AU20-APC BB H 2 08:56:53.10 1196.357 00:02:28 Yes
38 Sugaronni Loft - CA 25491-AU20-FOYS BB H 1 08:56:55.70 1195.252 00:02:31 Yes
39 A P C Loft - TX 20139-AU20-APC BB H 3 08:56:58.20 1194.192 00:02:33 Yes
40 White Arrow Loft - IL 0567-AU20-LCC BB H 2 08:57:00.20 1193.345 00:02:35 Yes
41 PNWC - ID 0032-AU20-PNWC Pair# 13 BC H 2 08:57:01.80 1192.669 00:02:37 Yes
42 Partridge Family Loft - CA 2236-AU20-PASO BC H 1 08:57:02.90 1192.204 00:02:38 Yes
43 Genesis Syndicate Loft - AZ 0575-AU20-GENS BB H 1 08:57:03.50 1191.950 00:02:39 Yes
44 Portland Loft - OR 2514-AU20-PNW Nebig Kittel BC H 1 08:57:04.10 1191.697 00:02:39 Yes
45 Oddiebeng Loft - CA 9669-AU20-FOYS BC H 2 08:57:06.10 1190.854 00:02:41 Yes
46 Crazy Al & Chris Melucci - CO 15703-AU20-AA BC H 1 08:57:06.80 1190.559 00:02:42 Yes
47 PNWC - ID 0042-AU20-PNWC Pair# 19 BBWS H 3 08:57:07.90 1190.096 00:02:43 Lost
48 Sports House Pigeons - CA 5501-AU20-JEDD BB H 1 08:57:08.20 1189.970 00:02:43 Yes
49 Geronimo Loft - MI 5788-AU20-CRAZ BB H 1 08:57:10.30 1189.087 00:02:45 Yes
50 Denis Eastwood - CA 2110-AU20-HANG BB H 1 08:57:10.90 1188.835 00:02:46 Yes
51 Dads Loft - CA 20321-AU20-LAKE BC H 2 08:57:11.40 1188.625 00:02:46 Yes
52 Kereru Whare - CA 1125-AU20-FSC BB H 4 08:57:12.40 1188.205 00:02:47 Yes
53 Skylinerpl.Com - UT 35819-AU20-JEDD "Troy's Girl" SLTW H 1 08:57:13.40 1187.786 00:02:48 Yes
54 Jacks Galaxy - FL 0058-AU20-XXX 45 x 39 BCPD H 1 08:57:13.70 1187.660 00:02:49 Yes
55 Jacks Galaxy - FL 0034-AU20-XXX 43730 x hook RC H 2 08:57:14.70 1187.241 00:02:50 Yes
56 Big Game Loft - CA 0336-AU20-EAV BC H 2 08:57:16.50 1186.488 00:02:51 Lost
57 Christopher Loft - UT 20125-AU20-GS BBT H 1 08:57:17.10 1186.237 00:02:52 Yes
58 Crazy Al & Chris Melucci - CO 5799-AU20-CRAZ BB H 2 08:57:18.20 1185.777 00:02:53 Yes
59 Bob Niemeyer - CA 1031-AU20-AUB BB H 1 08:57:19.90 1185.067 00:02:55 Yes
60 Bieche-Stevenson - CA 0181-AU20-BIE SLT H 2 08:57:21.60 1184.358 00:02:57 Yes
61 Euro Dead - CA 29153-AU20-JEDD C-6640 DV-7768 BB H 2 08:57:24.60 1183.109 00:03:00 Yes
62 Silicon Valley Syndicate - CA 20062-AU20-SVS DC H 1 08:57:24.90 1182.984 00:03:00 Yes
63 Skylinerpl.Com - UT 35770-AU20-JEDD "Golden Kaasboer" BBWF H 2 08:57:26.40 1182.361 00:03:01 Yes
64 Double Diamond Tack & Feed - CA 2022-AU20-HANG Lee BBWS H 1 08:57:33.60 1179.378 00:03:09 Yes
65 Genesis Syndicate Loft - AZ 0560-AU20-GENS BCWF H 2 08:57:34.50 1179.006 00:03:09 Yes
66 A-Lo Loft/Nemelka - UT 0032-AU20-ALOL ☯️2885 x 3983☯️ BCWF H 1 08:57:37.40 1177.809 00:03:12 Yes
67 Dud/Tx Mx/Ramp - TX 9457-AU20-AA BB H 2 08:57:38.00 1177.562 00:03:13 Yes
67 R & D Racing 2 - ON 4469-AU20-AA BB H 1 08:57:38.00 1177.562 00:03:13 Lost
69 Cloux Loft - CO 20715-AU20-FH BB H 1 08:57:39.30 1177.027 00:03:14 Yes
70 Stark Loft - CA 2004-AU20-HANG Gold Rush BBPD C 1 08:57:39.60 1176.903 00:03:15 Lost
71 Double Diamond Tack & Feed - CA 2021-AU20-HANG Double D BB H 2 08:57:42.80 1175.588 00:03:18 Yes
72 Sparks Trio Syn - NV 0317-AU20-RENO BB H 2 08:57:44.30 1174.972 00:03:19 Yes
73 White Arrow Loft - IL 0575-AU20-LCC BB H 3 08:57:53.00 1171.414 00:03:28 Yes
74 Crazy Al & Chris Melucci - CO 15704-AU20-AA BB H 3 08:57:58.50 1169.176 00:03:33 Yes
75 Skychargers 2 - CA 0101-AU20-CORO BBWF H 2 08:58:01.40 1167.999 00:03:36 Yes
76 Omelio Perez - NM 20737-AU20-NMRP BB H 1 08:58:08.00 1165.330 00:03:43 Yes
77 Euro Dead - CA 29163-AU20-JEDD S-7 C-6659 * BB H 3 08:58:09.70 1164.644 00:03:45 Yes
78 Denis Eastwood - CA 2100-AU20-HANG BBWF H 2 08:58:13.70 1163.034 00:03:49 Yes
79 Dan & Greg Coury - AZ 20005-AU20-PEGA BC H 1 08:58:15.80 1162.191 00:03:51 Yes
80 A P C Loft - TX 20128-AU20-APC BBWF H 4 08:58:20.40 1160.348 00:03:55 Yes
81 Cloux Loft - CO 20716-AU20-FH BB H 2 08:58:21.60 1159.868 00:03:57 Yes
82 D J's Loft Of Ca - CA 1801-AU20-FSC BB H 1 08:58:25.10 1158.470 00:04:00 Yes
83 Racing Pigeon Mall - WA 1078-AU20-RPM BB H 1 08:58:32.90 1155.368 00:04:08 Yes
84 Perfection Loft - KS 13028-AU20-AA 7100-1712 BB H 3 08:58:45.20 1150.510 00:04:20 Yes
85 Rob Wilson - CA 0204-IF20-PSC BBSP H 1 08:58:46.90 1149.842 00:04:22 Yes
86 Sierra Ranch - CA 2040-AU20-SR Gold finger BB H 3 08:58:49.60 1148.782 00:04:25 Yes
87 American Star Racing Pigeons - CA 0123-AU20-ASTR BB H 1 08:59:01.70 1144.057 00:04:37 Yes
88 R & D Racing 2 - ON 4407-AU20-AA BC H 2 08:59:03.10 1143.513 00:04:38 Yes
89 Walters Loft - NJ 12821-AU20-FOYS BB H 1 08:59:07.20 1141.922 00:04:42 Yes
90 John Hedderson - CA 0072-AU20-HEDD 6855x6853c BCSP H 1 08:59:10.20 1140.761 00:04:45 Yes
91 A-Lo Loft/Nemelka - UT 0011-AU20-NRPL Argenton X 8013 LC C 2 08:59:12.60 1139.833 00:04:48 Yes
92 Perfection Loft - KS 13047-AU20-AA 327-104 BB H 4 08:59:13.90 1139.332 00:04:49 Yes
93 John & Omelio - NM 20064-AU20-NMRP BC H 1 08:59:18.50 1137.560 00:04:54 Yes
94 Denis Eastwood - CA 2113-AU20-HANG BLK H 3 08:59:20.50 1136.792 00:04:55 Yes
95 Hayloft - CA 0421-AU20-GSF BB H 1 08:59:21.10 1136.561 00:04:56 Yes
96 Osty Loft - CA 0228-AU20-OTC ESPERANZA BC H 1 08:59:21.90 1136.254 00:04:57 Yes
97 Jacks Galaxy - FL 0064-AU20-XXX 1322 x 9 BBSP H 3 08:59:36.90 1130.529 00:05:12 Yes
98 Denis Eastwood - CA 2109-AU20-HANG BB H 4 08:59:44.10 1127.801 00:05:19 Yes
99 Crazy Al & Chris Melucci - CO 5718-AU20-CRAZ BBSP H 4 08:59:44.90 1127.499 00:05:20 Yes
100 Aceves-Cbc - CA 5613-AU20-AA SMK H 1 08:59:45.30 1127.348 00:05:20 Yes

There are 243 bird records

Note: These Race Results are unofficial and subject to change until verified by the Race Committee and declared final.